Year,Month,Day,Hour,Minute,Value (Times are PST for temperature in C)
2016,08,12,00,00,16.10
2016,08,12,00,01,16.10
2016,08,12,00,02,16.10
2016,08,12,00,03,16.10
2016,08,12,00,04,16.10
2016,08,12,00,05,16.10
2016,08,12,00,06,16.10
2016,08,12,00,07,16.10
2016,08,12,00,08,16.10
2016,08,12,00,09,16.10
2016,08,12,00,10,16.10
2016,08,12,00,11,16.10
2016,08,12,00,12,16.10
2016,08,12,00,13,16.00
2016,08,12,00,14,15.90
2016,08,12,00,15,15.90
2016,08,12,00,16,15.90
2016,08,12,00,17,15.90
2016,08,12,00,18,15.80
2016,08,12,00,19,15.80
2016,08,12,00,20,15.80
2016,08,12,00,21,15.80
2016,08,12,00,22,15.80
2016,08,12,00,23,15.80
2016,08,12,00,24,15.70
2016,08,12,00,25,15.70
2016,08,12,00,26,15.60
2016,08,12,00,27,15.60
2016,08,12,00,28,15.50
2016,08,12,00,29,15.50
2016,08,12,00,30,15.50
2016,08,12,00,31,15.40
2016,08,12,00,32,15.40
2016,08,12,00,33,15.30
2016,08,12,00,34,15.30
2016,08,12,00,35,15.30
2016,08,12,00,36,15.30
2016,08,12,00,37,15.30
2016,08,12,00,38,15.30
2016,08,12,00,39,15.30
2016,08,12,00,40,15.30
2016,08,12,00,41,15.30
2016,08,12,00,42,15.30
2016,08,12,00,43,15.30
2016,08,12,00,44,15.30
2016,08,12,00,45,15.30
2016,08,12,00,46,15.30
2016,08,12,00,47,15.30
2016,08,12,00,48,15.30
2016,08,12,00,49,15.30
2016,08,12,00,50,15.30
2016,08,12,00,51,15.30
2016,08,12,00,52,15.20
2016,08,12,00,53,15.20
2016,08,12,00,54,15.20
2016,08,12,00,55,15.20
2016,08,12,00,56,15.20
2016,08,12,00,57,15.20
2016,08,12,00,58,15.20
2016,08,12,00,59,15.20
2016,08,12,01,00,15.20
2016,08,12,01,01,15.10
2016,08,12,01,02,15.10
2016,08,12,01,03,15.10
2016,08,12,01,04,15.10
2016,08,12,01,05,15.10
2016,08,12,01,06,15.10
2016,08,12,01,07,15.10
2016,08,12,01,08,15.20
2016,08,12,01,09,15.20
2016,08,12,01,10,15.20
2016,08,12,01,11,15.20
2016,08,12,01,12,15.20
2016,08,12,01,13,15.20
2016,08,12,01,14,15.20
2016,08,12,01,15,15.20
2016,08,12,01,16,15.20
2016,08,12,01,17,15.20
2016,08,12,01,18,15.20
2016,08,12,01,19,15.20
2016,08,12,01,20,15.20
2016,08,12,01,21,15.20
2016,08,12,01,22,15.20
2016,08,12,01,23,15.20
2016,08,12,01,24,15.20
2016,08,12,01,25,15.20
2016,08,12,01,26,15.20
2016,08,12,01,27,15.20
2016,08,12,01,28,15.20
2016,08,12,01,29,15.20
2016,08,12,01,30,15.20
2016,08,12,01,31,15.20
2016,08,12,01,32,15.20
2016,08,12,01,33,15.20
2016,08,12,01,34,15.20
2016,08,12,01,35,15.20
2016,08,12,01,36,15.20
2016,08,12,01,37,15.20
2016,08,12,01,38,15.20
2016,08,12,01,39,15.10
2016,08,12,01,40,15.10
2016,08,12,01,41,15.10
2016,08,12,01,42,15.10
2016,08,12,01,43,15.10
2016,08,12,01,44,15.00
2016,08,12,01,45,15.00
2016,08,12,01,46,15.00
2016,08,12,01,47,14.90
2016,08,12,01,48,14.90
2016,08,12,01,49,14.90
2016,08,12,01,50,14.80
2016,08,12,01,51,14.80
2016,08,12,01,52,14.80
2016,08,12,01,53,14.80
2016,08,12,01,54,14.80
2016,08,12,01,55,14.80
2016,08,12,01,56,14.80
2016,08,12,01,57,14.80
2016,08,12,01,58,14.80
2016,08,12,01,59,14.80
2016,08,12,02,00,14.80
2016,08,12,02,01,14.80
2016,08,12,02,02,14.80
2016,08,12,02,03,14.80
2016,08,12,02,04,14.80
2016,08,12,02,05,14.80
2016,08,12,02,06,14.80
2016,08,12,02,07,14.80
2016,08,12,02,08,14.80
2016,08,12,02,09,14.80
2016,08,12,02,10,14.80
2016,08,12,02,11,14.80
2016,08,12,02,12,14.80
2016,08,12,02,13,14.80
2016,08,12,02,14,14.80
2016,08,12,02,15,14.80
2016,08,12,02,16,14.80
2016,08,12,02,17,14.80
2016,08,12,02,18,14.80
2016,08,12,02,19,14.80
2016,08,12,02,20,14.80
2016,08,12,02,21,14.80
2016,08,12,02,22,14.80
2016,08,12,02,23,14.80
2016,08,12,02,24,14.80
2016,08,12,02,25,14.80
2016,08,12,02,26,14.80
2016,08,12,02,27,14.80
2016,08,12,02,28,14.80
2016,08,12,02,29,14.80
2016,08,12,02,30,14.80
2016,08,12,02,31,14.80
2016,08,12,02,32,14.80
2016,08,12,02,33,14.80
2016,08,12,02,34,14.80
2016,08,12,02,35,14.80
2016,08,12,02,36,14.80
2016,08,12,02,37,14.80
2016,08,12,02,38,14.80
2016,08,12,02,39,14.80
2016,08,12,02,40,14.80
2016,08,12,02,41,14.80
2016,08,12,02,42,14.80
2016,08,12,02,43,14.80
2016,08,12,02,44,14.80
2016,08,12,02,45,14.80
2016,08,12,02,46,14.80
2016,08,12,02,47,14.70
2016,08,12,02,48,14.70
2016,08,12,02,49,14.70
2016,08,12,02,50,14.70
2016,08,12,02,51,14.70
2016,08,12,02,52,14.70
2016,08,12,02,53,14.70
2016,08,12,02,54,14.60
2016,08,12,02,55,14.60
2016,08,12,02,56,14.70
2016,08,12,02,57,14.70
2016,08,12,02,58,14.70
2016,08,12,02,59,14.70
2016,08,12,03,00,14.70
2016,08,12,03,01,14.70
2016,08,12,03,02,14.70
2016,08,12,03,03,14.70
2016,08,12,03,04,14.60
2016,08,12,03,05,14.60
2016,08,12,03,06,14.60
2016,08,12,03,07,14.60
2016,08,12,03,08,14.60
2016,08,12,03,09,14.60
2016,08,12,03,10,14.60
2016,08,12,03,11,14.60
2016,08,12,03,12,14.50
2016,08,12,03,13,14.50
2016,08,12,03,14,14.50
2016,08,12,03,15,14.50
2016,08,12,03,16,14.50
2016,08,12,03,17,14.40
2016,08,12,03,18,14.40
2016,08,12,03,19,14.40
2016,08,12,03,20,14.30
2016,08,12,03,21,14.30
2016,08,12,03,22,14.30
2016,08,12,03,23,14.20
2016,08,12,03,24,14.20
2016,08,12,03,25,14.20
2016,08,12,03,26,14.20
2016,08,12,03,27,14.20
2016,08,12,03,28,14.20
2016,08,12,03,29,14.20
2016,08,12,03,30,14.20
2016,08,12,03,31,14.20
2016,08,12,03,32,14.20
2016,08,12,03,33,14.20
2016,08,12,03,34,14.10
2016,08,12,03,35,14.10
2016,08,12,03,36,14.10
2016,08,12,03,37,14.10
2016,08,12,03,38,14.10
2016,08,12,03,39,14.10
2016,08,12,03,40,14.10
2016,08,12,03,41,14.10
2016,08,12,03,42,14.10
2016,08,12,03,43,14.10
2016,08,12,03,44,14.10
2016,08,12,03,45,14.10
2016,08,12,03,46,14.10
2016,08,12,03,47,14.10
2016,08,12,03,48,14.00
2016,08,12,03,49,14.00
2016,08,12,03,50,14.00
2016,08,12,03,51,14.00
2016,08,12,03,52,14.00
2016,08,12,03,53,14.00
2016,08,12,03,54,13.90
2016,08,12,03,55,13.90
2016,08,12,03,56,13.90
2016,08,12,03,57,13.90
2016,08,12,03,58,13.90
2016,08,12,03,59,13.80
2016,08,12,04,00,13.80
2016,08,12,04,01,13.80
2016,08,12,04,02,13.80
2016,08,12,04,03,13.80
2016,08,12,04,04,13.70
2016,08,12,04,05,13.70
2016,08,12,04,06,13.70
2016,08,12,04,07,13.70
2016,08,12,04,08,13.70
2016,08,12,04,09,13.70
2016,08,12,04,10,13.70
2016,08,12,04,11,13.70
2016,08,12,04,12,13.70
2016,08,12,04,13,13.70
2016,08,12,04,14,13.70
2016,08,12,04,15,13.70
2016,08,12,04,16,13.70
2016,08,12,04,17,13.70
2016,08,12,04,18,13.70
2016,08,12,04,19,13.70
2016,08,12,04,20,13.70
2016,08,12,04,21,13.70
2016,08,12,04,22,13.70
2016,08,12,04,23,13.70
2016,08,12,04,24,13.70
2016,08,12,04,25,13.70
2016,08,12,04,26,13.70
2016,08,12,04,27,13.70
2016,08,12,04,28,13.70
2016,08,12,04,29,13.70
2016,08,12,04,30,13.70
2016,08,12,04,31,13.70
2016,08,12,04,32,13.70
2016,08,12,04,33,13.70
2016,08,12,04,34,13.70
2016,08,12,04,35,13.70
2016,08,12,04,36,13.60
2016,08,12,04,37,13.60
2016,08,12,04,38,13.60
2016,08,12,04,39,13.60
2016,08,12,04,40,13.60
2016,08,12,04,41,13.60
2016,08,12,04,42,13.60
2016,08,12,04,43,13.50
2016,08,12,04,44,13.50
2016,08,12,04,45,13.50
2016,08,12,04,46,13.50
2016,08,12,04,47,13.50
2016,08,12,04,48,13.40
2016,08,12,04,49,13.40
2016,08,12,04,50,13.40
2016,08,12,04,51,13.40
2016,08,12,04,52,13.30
2016,08,12,04,53,13.30
2016,08,12,04,54,13.30
2016,08,12,04,55,13.30
2016,08,12,04,56,13.30
2016,08,12,04,57,13.30
2016,08,12,04,58,13.30
2016,08,12,04,59,13.30
2016,08,12,05,00,13.30
2016,08,12,05,01,13.30
2016,08,12,05,02,13.20
2016,08,12,05,03,13.20
2016,08,12,05,04,13.20
2016,08,12,05,05,13.20
2016,08,12,05,06,13.20
2016,08,12,05,07,13.20
2016,08,12,05,08,13.20
2016,08,12,05,09,13.20
2016,08,12,05,10,13.20
2016,08,12,05,11,13.30
2016,08,12,05,12,13.30
2016,08,12,05,13,13.30
2016,08,12,05,14,13.30
2016,08,12,05,15,13.30
2016,08,12,05,16,13.30
2016,08,12,05,17,13.30
2016,08,12,05,18,13.30
2016,08,12,05,19,13.30
2016,08,12,05,20,13.30
2016,08,12,05,21,13.30
2016,08,12,05,22,13.30
2016,08,12,05,23,13.30
2016,08,12,05,24,13.30
2016,08,12,05,25,13.30
2016,08,12,05,26,13.30
2016,08,12,05,27,13.30
2016,08,12,05,28,13.20
2016,08,12,05,29,13.20
2016,08,12,05,30,13.20
2016,08,12,05,31,13.20
2016,08,12,05,32,13.20
2016,08,12,05,33,13.20
2016,08,12,05,34,13.20
2016,08,12,05,35,13.20
2016,08,12,05,36,13.20
2016,08,12,05,37,13.20
2016,08,12,05,38,13.20
2016,08,12,05,39,13.20
2016,08,12,05,40,13.20
2016,08,12,05,41,13.20
2016,08,12,05,42,13.20
2016,08,12,05,43,13.20
2016,08,12,05,44,13.20
2016,08,12,05,45,13.20
2016,08,12,05,46,13.20
2016,08,12,05,47,13.20
2016,08,12,05,48,13.20
2016,08,12,05,49,13.20
2016,08,12,05,50,13.20
2016,08,12,05,51,13.20
2016,08,12,05,52,13.20
2016,08,12,05,53,13.20
2016,08,12,05,54,13.20
2016,08,12,05,55,13.20
2016,08,12,05,56,13.10
2016,08,12,05,57,13.10
2016,08,12,05,58,13.10
2016,08,12,05,59,13.10
2016,08,12,06,00,13.10
2016,08,12,06,01,13.10
2016,08,12,06,02,13.10
2016,08,12,06,03,13.00
2016,08,12,06,04,13.00
2016,08,12,06,05,13.00
2016,08,12,06,06,13.00
2016,08,12,06,07,13.00
2016,08,12,06,08,13.00
2016,08,12,06,09,13.00
2016,08,12,06,10,13.00
2016,08,12,06,11,13.00
2016,08,12,06,12,13.10
2016,08,12,06,13,13.10
2016,08,12,06,14,13.10
2016,08,12,06,15,13.10
2016,08,12,06,16,13.10
2016,08,12,06,17,13.20
2016,08,12,06,18,13.20
2016,08,12,06,19,13.20
2016,08,12,06,20,13.20
2016,08,12,06,21,13.20
2016,08,12,06,22,13.20
2016,08,12,06,23,13.20
2016,08,12,06,24,13.20
2016,08,12,06,25,13.20
2016,08,12,06,26,13.30
2016,08,12,06,27,13.30
2016,08,12,06,28,13.30
2016,08,12,06,29,13.30
2016,08,12,06,30,13.30
2016,08,12,06,31,13.30
2016,08,12,06,32,13.30
2016,08,12,06,33,13.30
2016,08,12,06,34,13.30
2016,08,12,06,35,13.30
2016,08,12,06,36,13.30
2016,08,12,06,37,13.30
2016,08,12,06,38,13.30
2016,08,12,06,39,13.30
2016,08,12,06,40,13.30
2016,08,12,06,41,13.30
2016,08,12,06,42,13.30
2016,08,12,06,43,13.30
2016,08,12,06,44,13.30
2016,08,12,06,45,13.30
2016,08,12,06,46,13.30
2016,08,12,06,47,13.30
2016,08,12,06,48,13.30
2016,08,12,06,49,13.30
2016,08,12,06,50,13.30
2016,08,12,06,51,13.30
2016,08,12,06,52,13.30
2016,08,12,06,53,13.30
2016,08,12,06,54,13.30
2016,08,12,06,55,13.30
2016,08,12,06,56,13.30
2016,08,12,06,57,13.30
2016,08,12,06,58,13.30
2016,08,12,06,59,13.40
2016,08,12,07,00,13.40
2016,08,12,07,01,13.40
2016,08,12,07,02,13.50
2016,08,12,07,03,13.50
2016,08,12,07,04,13.60
2016,08,12,07,05,13.60
2016,08,12,07,06,13.60
2016,08,12,07,07,13.60
2016,08,12,07,08,13.60
2016,08,12,07,09,13.60
2016,08,12,07,10,13.60
2016,08,12,07,11,13.70
2016,08,12,07,12,13.70
2016,08,12,07,13,13.70
2016,08,12,07,14,13.70
2016,08,12,07,15,13.80
2016,08,12,07,16,13.90
2016,08,12,07,17,13.90
2016,08,12,07,18,14.00
2016,08,12,07,19,14.00
2016,08,12,07,20,14.10
2016,08,12,07,21,14.20
2016,08,12,07,22,14.20
2016,08,12,07,23,14.20
2016,08,12,07,24,14.30
2016,08,12,07,25,14.30
2016,08,12,07,26,14.40
2016,08,12,07,27,14.40
2016,08,12,07,28,14.40
2016,08,12,07,29,14.40
2016,08,12,07,30,14.50
2016,08,12,07,31,14.50
2016,08,12,07,32,14.60
2016,08,12,07,33,14.60
2016,08,12,07,34,14.70
2016,08,12,07,35,14.70
2016,08,12,07,36,14.80
2016,08,12,07,37,14.80
2016,08,12,07,38,14.90
2016,08,12,07,39,14.90
2016,08,12,07,40,15.00
2016,08,12,07,41,15.10
2016,08,12,07,42,15.10
2016,08,12,07,43,15.20
2016,08,12,07,44,15.30
2016,08,12,07,45,15.40
2016,08,12,07,46,15.50
2016,08,12,07,47,15.60
2016,08,12,07,48,15.70
2016,08,12,07,49,15.80
2016,08,12,07,50,15.80
2016,08,12,07,51,16.00
2016,08,12,07,52,16.10
2016,08,12,07,53,16.20
2016,08,12,07,54,16.30
2016,08,12,07,55,16.40
2016,08,12,07,56,16.50
2016,08,12,07,57,16.60
2016,08,12,07,58,16.70
2016,08,12,07,59,16.90
2016,08,12,08,00,17.00
2016,08,12,08,01,17.10
2016,08,12,08,02,17.20
2016,08,12,08,03,17.30
2016,08,12,08,04,17.40
2016,08,12,08,05,17.50
2016,08,12,08,06,17.60
2016,08,12,08,07,17.70
2016,08,12,08,08,17.70
2016,08,12,08,09,17.80
2016,08,12,08,10,17.90
2016,08,12,08,11,17.90
2016,08,12,08,12,17.90
2016,08,12,08,13,18.00
2016,08,12,08,14,18.10
2016,08,12,08,15,18.20
2016,08,12,08,16,18.20
2016,08,12,08,17,18.20
2016,08,12,08,18,18.30
2016,08,12,08,19,18.40
2016,08,12,08,20,18.50
2016,08,12,08,21,18.50
2016,08,12,08,22,18.60
2016,08,12,08,23,18.80
2016,08,12,08,24,18.90
2016,08,12,08,25,19.10
2016,08,12,08,26,19.20
2016,08,12,08,27,19.40
2016,08,12,08,28,19.60
2016,08,12,08,29,19.80
2016,08,12,08,30,19.90
2016,08,12,08,31,20.10
2016,08,12,08,32,20.20
2016,08,12,08,33,20.30
2016,08,12,08,34,20.50
2016,08,12,08,35,20.60
2016,08,12,08,36,20.70
2016,08,12,08,37,20.90
2016,08,12,08,38,21.00
2016,08,12,08,39,21.00
2016,08,12,08,40,21.10
2016,08,12,08,41,21.20
2016,08,12,08,42,21.30
2016,08,12,08,43,21.40
2016,08,12,08,44,21.50
2016,08,12,08,45,21.60
2016,08,12,08,46,21.60
2016,08,12,08,47,21.70
2016,08,12,08,48,21.70
2016,08,12,08,49,21.80
2016,08,12,08,50,21.80
2016,08,12,08,51,21.90
2016,08,12,08,52,22.00
2016,08,12,08,53,22.10
2016,08,12,08,54,22.10
2016,08,12,08,55,22.20
2016,08,12,08,56,22.30
2016,08,12,08,57,22.30
2016,08,12,08,58,22.40
2016,08,12,08,59,22.50
2016,08,12,09,00,22.60
2016,08,12,09,01,22.60
2016,08,12,09,02,22.60
2016,08,12,09,03,22.70
2016,08,12,09,04,22.70
2016,08,12,09,05,22.80
2016,08,12,09,06,22.80
2016,08,12,09,07,22.90
2016,08,12,09,08,22.90
2016,08,12,09,09,22.90
2016,08,12,09,10,22.90
2016,08,12,09,11,22.90
2016,08,12,09,12,22.90
2016,08,12,09,13,22.90
2016,08,12,09,14,22.90
2016,08,12,09,15,22.90
2016,08,12,09,16,22.90
2016,08,12,09,17,22.90
2016,08,12,09,18,22.90
2016,08,12,09,19,23.00
2016,08,12,09,20,23.10
2016,08,12,09,21,23.10
2016,08,12,09,22,23.20
2016,08,12,09,23,23.20
2016,08,12,09,24,23.20
2016,08,12,09,25,23.20
2016,08,12,09,26,23.30
2016,08,12,09,27,23.20
2016,08,12,09,28,23.20
2016,08,12,09,29,23.20
2016,08,12,09,30,23.20
2016,08,12,09,31,23.30
2016,08,12,09,32,23.30
2016,08,12,09,33,23.30
2016,08,12,09,34,23.30
2016,08,12,09,35,23.40
2016,08,12,09,36,23.50
2016,08,12,09,37,23.60
2016,08,12,09,38,23.60
2016,08,12,09,39,23.70
2016,08,12,09,40,23.70
2016,08,12,09,41,23.70
2016,08,12,09,42,23.70
2016,08,12,09,43,23.60
2016,08,12,09,44,23.60
2016,08,12,09,45,23.60
2016,08,12,09,46,23.60
2016,08,12,09,47,23.60
2016,08,12,09,48,23.60
2016,08,12,09,49,23.60
2016,08,12,09,50,23.60
2016,08,12,09,51,23.70
2016,08,12,09,52,23.70
2016,08,12,09,53,23.70
2016,08,12,09,54,23.70
2016,08,12,09,55,23.70
2016,08,12,09,56,23.70
2016,08,12,09,57,23.70
2016,08,12,09,58,23.70
2016,08,12,09,59,23.70
2016,08,12,10,00,23.70
2016,08,12,10,01,23.70
2016,08,12,10,02,23.70
2016,08,12,10,03,23.70
2016,08,12,10,04,23.70
2016,08,12,10,05,23.70
2016,08,12,10,06,23.70
2016,08,12,10,07,23.50
2016,08,12,10,08,23.10
2016,08,12,10,09,22.80
2016,08,12,10,10,22.40
2016,08,12,10,11,22.20
2016,08,12,10,12,21.90
2016,08,12,10,13,21.60
2016,08,12,10,14,21.50
2016,08,12,10,15,21.20
2016,08,12,10,16,20.90
2016,08,12,10,17,20.60
2016,08,12,10,18,20.40
2016,08,12,10,19,20.20
2016,08,12,10,20,20.20
2016,08,12,10,21,20.10
2016,08,12,10,22,20.10
2016,08,12,10,23,20.00
2016,08,12,10,24,19.90
2016,08,12,10,25,19.90
2016,08,12,10,26,19.90
2016,08,12,10,27,19.90
2016,08,12,10,28,19.80
2016,08,12,10,29,19.80
2016,08,12,10,30,19.80
2016,08,12,10,31,19.80
2016,08,12,10,32,19.80
2016,08,12,10,33,19.80
2016,08,12,10,34,19.90
2016,08,12,10,35,19.80
2016,08,12,10,36,19.90
2016,08,12,10,37,19.90
2016,08,12,10,38,20.00
2016,08,12,10,39,20.10
2016,08,12,10,40,20.00
2016,08,12,10,41,19.90
2016,08,12,10,42,19.90
2016,08,12,10,43,19.90
2016,08,12,10,44,19.90
2016,08,12,10,45,19.90
2016,08,12,10,46,19.90
2016,08,12,10,47,20.00
2016,08,12,10,48,20.10
2016,08,12,10,49,20.30
2016,08,12,10,50,20.40
2016,08,12,10,51,20.50
2016,08,12,10,52,20.60
2016,08,12,10,53,20.70
2016,08,12,10,54,20.80
2016,08,12,10,55,20.80
2016,08,12,10,56,20.80
2016,08,12,10,57,20.80
2016,08,12,10,58,20.70
2016,08,12,10,59,20.70
2016,08,12,11,00,20.80
2016,08,12,11,01,20.90
2016,08,12,11,02,20.90
2016,08,12,11,03,21.00
2016,08,12,11,04,21.10
2016,08,12,11,05,21.20
2016,08,12,11,06,21.20
2016,08,12,11,07,21.30
2016,08,12,11,08,21.30
2016,08,12,11,09,21.30
2016,08,12,11,10,21.30
2016,08,12,11,11,21.30
2016,08,12,11,12,21.30
2016,08,12,11,13,21.30
2016,08,12,11,14,21.30
2016,08,12,11,15,21.30
2016,08,12,11,16,21.30
2016,08,12,11,17,21.30
2016,08,12,11,18,21.30
2016,08,12,11,19,21.30
2016,08,12,11,20,21.30
2016,08,12,11,21,21.40
2016,08,12,11,22,21.50
2016,08,12,11,23,21.50
2016,08,12,11,24,21.40
2016,08,12,11,25,21.30
2016,08,12,11,26,21.40
2016,08,12,11,27,21.40
2016,08,12,11,28,21.50
2016,08,12,11,29,21.60
2016,08,12,11,30,21.40
2016,08,12,11,31,21.50
2016,08,12,11,32,21.60
2016,08,12,11,33,21.60
2016,08,12,11,34,21.60
2016,08,12,11,35,21.60
2016,08,12,11,36,21.50
2016,08,12,11,37,21.40
2016,08,12,11,38,21.60
2016,08,12,11,39,21.50
2016,08,12,11,40,21.40
2016,08,12,11,41,21.60
2016,08,12,11,42,21.70
2016,08,12,11,43,21.70
2016,08,12,11,44,21.80
2016,08,12,11,45,21.80
2016,08,12,11,46,21.80
2016,08,12,11,47,21.80
2016,08,12,11,48,21.90
2016,08,12,11,49,22.00
2016,08,12,11,50,22.10
2016,08,12,11,51,22.10
2016,08,12,11,52,22.10
2016,08,12,11,53,22.10
2016,08,12,11,54,22.10
2016,08,12,11,55,22.20
2016,08,12,11,56,22.20
2016,08,12,11,57,22.10
2016,08,12,11,58,22.00
2016,08,12,11,59,22.00
2016,08,12,12,00,22.00
2016,08,12,12,01,21.90
2016,08,12,12,02,21.80
2016,08,12,12,03,21.70
2016,08,12,12,04,21.60
2016,08,12,12,05,21.60
2016,08,12,12,06,21.60
2016,08,12,12,07,21.60
2016,08,12,12,08,21.60
2016,08,12,12,09,21.60
2016,08,12,12,10,21.60
2016,08,12,12,11,21.60
2016,08,12,12,12,21.70
2016,08,12,12,13,21.70
2016,08,12,12,14,21.60
2016,08,12,12,15,21.60
2016,08,12,12,16,21.60
2016,08,12,12,17,21.60
2016,08,12,12,18,21.60
2016,08,12,12,19,21.60
2016,08,12,12,20,21.60
2016,08,12,12,21,21.60
2016,08,12,12,22,21.60
2016,08,12,12,23,21.60
2016,08,12,12,24,21.60
2016,08,12,12,25,21.60
2016,08,12,12,26,21.60
2016,08,12,12,27,21.60
2016,08,12,12,28,21.60
2016,08,12,12,29,21.60
2016,08,12,12,30,21.60
2016,08,12,12,31,21.60
2016,08,12,12,32,21.60
2016,08,12,12,33,21.60
2016,08,12,12,34,21.60
2016,08,12,12,35,21.60
2016,08,12,12,36,21.70
2016,08,12,12,37,21.80
2016,08,12,12,38,21.90
2016,08,12,12,39,21.90
2016,08,12,12,40,22.00
2016,08,12,12,41,22.00
2016,08,12,12,42,22.00
2016,08,12,12,43,22.00
2016,08,12,12,44,21.90
2016,08,12,12,45,21.80
2016,08,12,12,46,21.80
2016,08,12,12,47,21.80
2016,08,12,12,48,21.70
2016,08,12,12,49,21.70
2016,08,12,12,50,21.70
2016,08,12,12,51,21.90
2016,08,12,12,52,22.00
2016,08,12,12,53,22.00
2016,08,12,12,54,22.10
2016,08,12,12,55,22.10
2016,08,12,12,56,22.10
2016,08,12,12,57,22.10
2016,08,12,12,58,22.20
2016,08,12,12,59,22.30
2016,08,12,13,00,22.40
2016,08,12,13,01,22.40
2016,08,12,13,02,22.40
2016,08,12,13,03,22.30
2016,08,12,13,04,22.40
2016,08,12,13,05,22.40
2016,08,12,13,06,22.40
2016,08,12,13,07,22.40
2016,08,12,13,08,22.40
2016,08,12,13,09,22.40
2016,08,12,13,10,22.50
2016,08,12,13,11,22.50
2016,08,12,13,12,22.50
2016,08,12,13,13,22.50
2016,08,12,13,14,22.70
2016,08,12,13,15,22.80
2016,08,12,13,16,22.90
2016,08,12,13,17,22.80
2016,08,12,13,18,22.80
2016,08,12,13,19,22.70
2016,08,12,13,20,22.70
2016,08,12,13,21,22.80
2016,08,12,13,22,22.80
2016,08,12,13,23,22.80
2016,08,12,13,24,22.90
2016,08,12,13,25,22.90
2016,08,12,13,26,23.00
2016,08,12,13,27,23.10
2016,08,12,13,28,23.20
2016,08,12,13,29,23.20
2016,08,12,13,30,23.10
2016,08,12,13,31,23.10
2016,08,12,13,32,23.20
2016,08,12,13,33,23.10
2016,08,12,13,34,23.00
2016,08,12,13,35,23.00
2016,08,12,13,36,23.00
2016,08,12,13,37,22.90
2016,08,12,13,38,22.90
2016,08,12,13,39,22.90
2016,08,12,13,40,22.90
2016,08,12,13,41,22.90
2016,08,12,13,42,22.90
2016,08,12,13,43,22.90
2016,08,12,13,44,22.90
2016,08,12,13,45,23.00
2016,08,12,13,46,23.00
2016,08,12,13,47,22.90
2016,08,12,13,48,22.80
2016,08,12,13,49,22.80
2016,08,12,13,50,22.80
2016,08,12,13,51,22.90
2016,08,12,13,52,22.90
2016,08,12,13,53,23.00
2016,08,12,13,54,23.00
2016,08,12,13,55,22.80
2016,08,12,13,56,22.80
2016,08,12,13,57,22.80
2016,08,12,13,58,22.80
2016,08,12,13,59,22.80
2016,08,12,14,00,22.70
2016,08,12,14,01,22.70
2016,08,12,14,02,22.90
2016,08,12,14,03,23.00
2016,08,12,14,04,23.10
2016,08,12,14,05,23.10
2016,08,12,14,06,23.10
2016,08,12,14,07,23.10
2016,08,12,14,08,23.20
2016,08,12,14,09,23.20
2016,08,12,14,10,23.30
2016,08,12,14,11,23.30
2016,08,12,14,12,23.30
2016,08,12,14,13,23.40
2016,08,12,14,14,23.40
2016,08,12,14,15,23.50
2016,08,12,14,16,23.60
2016,08,12,14,17,23.60
2016,08,12,14,18,23.70
2016,08,12,14,19,23.80
2016,08,12,14,20,23.90
2016,08,12,14,21,23.90
2016,08,12,14,22,23.90
2016,08,12,14,23,23.80
2016,08,12,14,24,23.70
2016,08,12,14,25,23.70
2016,08,12,14,26,23.70
2016,08,12,14,27,23.60
2016,08,12,14,28,23.40
2016,08,12,14,29,23.30
2016,08,12,14,30,23.30
2016,08,12,14,31,23.40
2016,08,12,14,32,23.50
2016,08,12,14,33,23.60
2016,08,12,14,34,23.60
2016,08,12,14,35,23.70
2016,08,12,14,36,23.80
2016,08,12,14,37,23.90
2016,08,12,14,38,23.90
2016,08,12,14,39,23.90
2016,08,12,14,40,23.90
2016,08,12,14,41,23.90
2016,08,12,14,42,23.90
2016,08,12,14,43,23.90
2016,08,12,14,44,23.90
2016,08,12,14,45,23.90
2016,08,12,14,46,23.90
2016,08,12,14,47,23.90
2016,08,12,14,48,23.90
2016,08,12,14,49,23.80
2016,08,12,14,50,23.80
2016,08,12,14,51,23.90
2016,08,12,14,52,24.00
2016,08,12,14,53,24.10
2016,08,12,14,54,24.10
2016,08,12,14,55,24.10
2016,08,12,14,56,24.10
2016,08,12,14,57,24.10
2016,08,12,14,58,24.10
2016,08,12,14,59,24.10
2016,08,12,15,00,24.10
2016,08,12,15,01,24.10
2016,08,12,15,02,24.10
2016,08,12,15,03,24.10
2016,08,12,15,04,24.20
2016,08,12,15,05,24.10
2016,08,12,15,06,24.20
2016,08,12,15,07,24.10
2016,08,12,15,08,24.10
2016,08,12,15,09,24.00
2016,08,12,15,10,23.90
2016,08,12,15,11,23.90
2016,08,12,15,12,23.90
2016,08,12,15,13,24.00
2016,08,12,15,14,24.10
2016,08,12,15,15,24.10
2016,08,12,15,16,24.00
2016,08,12,15,17,23.90
2016,08,12,15,18,23.80
2016,08,12,15,19,23.80
2016,08,12,15,20,23.70
2016,08,12,15,21,23.80
2016,08,12,15,22,23.80
2016,08,12,15,23,23.90
2016,08,12,15,24,23.80
2016,08,12,15,25,23.90
2016,08,12,15,26,23.80
2016,08,12,15,27,23.80
2016,08,12,15,28,23.80
2016,08,12,15,29,23.90
2016,08,12,15,30,24.00
2016,08,12,15,31,24.10
2016,08,12,15,32,24.10
2016,08,12,15,33,24.10
2016,08,12,15,34,24.20
2016,08,12,15,35,24.20
2016,08,12,15,36,24.10
2016,08,12,15,37,24.10
2016,08,12,15,38,24.10
2016,08,12,15,39,24.30
2016,08,12,15,40,24.30
2016,08,12,15,41,24.30
2016,08,12,15,42,24.40
2016,08,12,15,43,24.40
2016,08,12,15,44,24.30
2016,08,12,15,45,24.10
2016,08,12,15,46,24.10
2016,08,12,15,47,24.10
2016,08,12,15,48,24.10
2016,08,12,15,49,24.10
2016,08,12,15,50,24.00
2016,08,12,15,51,23.90
2016,08,12,15,52,23.90
2016,08,12,15,53,24.00
2016,08,12,15,54,24.10
2016,08,12,15,55,24.10
2016,08,12,15,56,24.20
2016,08,12,15,57,24.20
2016,08,12,15,58,24.20
2016,08,12,15,59,24.20
2016,08,12,16,00,24.30
2016,08,12,16,01,24.30
2016,08,12,16,02,24.30
2016,08,12,16,03,24.30
2016,08,12,16,04,24.30
2016,08,12,16,05,24.30
2016,08,12,16,06,24.30
2016,08,12,16,07,24.30
2016,08,12,16,08,24.40
2016,08,12,16,09,24.40
2016,08,12,16,10,24.40
2016,08,12,16,11,24.40
2016,08,12,16,12,24.30
2016,08,12,16,13,24.20
2016,08,12,16,14,24.20
2016,08,12,16,15,24.30
2016,08,12,16,16,24.30
2016,08,12,16,17,24.30
2016,08,12,16,18,24.30
2016,08,12,16,19,24.30
2016,08,12,16,20,24.20
2016,08,12,16,21,24.30
2016,08,12,16,22,24.40
2016,08,12,16,23,24.40
2016,08,12,16,24,24.30
2016,08,12,16,25,24.40
2016,08,12,16,26,24.40
2016,08,12,16,27,24.40
2016,08,12,16,28,24.30
2016,08,12,16,29,24.30
2016,08,12,16,30,24.30
2016,08,12,16,31,24.30
2016,08,12,16,32,24.30
2016,08,12,16,33,24.30
2016,08,12,16,34,24.30
2016,08,12,16,35,24.30
2016,08,12,16,36,24.30
2016,08,12,16,37,24.30
2016,08,12,16,38,24.30
2016,08,12,16,39,24.30
2016,08,12,16,40,24.30
2016,08,12,16,41,24.40
2016,08,12,16,42,24.60
2016,08,12,16,43,24.70
2016,08,12,16,44,24.70
2016,08,12,16,45,24.80
2016,08,12,16,46,24.80
2016,08,12,16,47,24.80
2016,08,12,16,48,24.90
2016,08,12,16,49,25.00
2016,08,12,16,50,25.10
2016,08,12,16,51,25.20
2016,08,12,16,52,25.40
2016,08,12,16,53,25.50
2016,08,12,16,54,25.60
2016,08,12,16,55,25.60
2016,08,12,16,56,25.60
2016,08,12,16,57,25.70
2016,08,12,16,58,25.80
2016,08,12,16,59,25.80
2016,08,12,17,00,25.80
2016,08,12,17,01,25.80
2016,08,12,17,02,25.90
2016,08,12,17,03,26.00
2016,08,12,17,04,26.00
2016,08,12,17,05,26.10
2016,08,12,17,06,26.00
2016,08,12,17,07,25.90
2016,08,12,17,08,25.90
2016,08,12,17,09,25.80
2016,08,12,17,10,25.80
2016,08,12,17,11,25.70
2016,08,12,17,12,25.80
2016,08,12,17,13,25.90
2016,08,12,17,14,25.90
2016,08,12,17,15,26.00
2016,08,12,17,16,26.00
2016,08,12,17,17,26.00
2016,08,12,17,18,26.00
2016,08,12,17,19,26.10